Vorticity
3 3 3 3 4 4 4 3 5 5 5 3 3 8 6 5 7 5 4 7 13 20 15 -1 -3 5 24 21 11 6 3 1 5 5 5 4 0 1 2 9 12 6 4 -10
6 7 7 6 4 4 4 3 4 4 5 4 7 6 6 4 7 4 6 7 5 5 6 13 19 21 -8 5 21 18 6 5 7 6 9 8 7 6 6 4 7 6 7 22
7 6 5 5 5 6 9 8 7 7 7 8 7 7 4 4 6 4 3 5 5 4 5 5 3 6 19 16 1 5 15 16 15 8 3 2 6 3 4 4 -7 -4 4 6
5 5 7 5 5 5 9 4 4 4 5 11 9 10 8 8 10 8 7 6 9 5 5 4 7 6 3 5 19 12 3 -0 4 21 15 3 7 6 6 1 1 -6 -5 10
5 5 5 7 8 9 13 12 12 13 10 9 9 9 13 12 8 8 7 10 8 10 10 9 6 5 7 1 5 8 10 9 9 7 11 14 6 8 4 6 4 1 2 8
15 17 21 22 24 24 20 20 20 20 18 18 18 13 9 7 11 9 10 8 7 4 7 8 9 8 7 7 6 7 5 8 15 10 10 12 1 14 16 4 7 5 2 -12
22 23 22 22 23 27 26 26 25 24 23 27 29 30 22 19 18 18 14 13 10 9 7 8 10 9 9 8 5 7 8 9 13 11 14 10 12 6 8 15 8 8 5 3
23 27 26 28 34 38 38 35 35 35 35 33 32 30 26 24 24 19 19 15 14 16 15 14 10 7 8 6 9 7 8 8 15 12 11 10 8 14 13 10 11 8 9 4
27 37 33 38 33 28 33 22 15 18 24 26 31 37 39 36 32 27 25 18 13 11 10 9 12 9 5 11 11 11 12 12 10 13 20 15 8 2 10 15 13 13 11 14
34 27 24 19 21 27 22 18 6 3 10 14 14 17 25 26 26 27 25 33 32 39 28 17 17 16 13 15 10 13 15 11 21 23 18 21 13 11 16 11 4 26 11 5
25 20 18 32 33 25 8 16 3 5 7 6 12 10 17 20 19 18 16 19 28 23 33 36 34 36 26 30 22 16 10 -2 32 29 1 5 10 9 10 16 10 9 11 15
14 9 12 22 21 15 8 3 1 5 11 2 14 16 15 19 21 21 19 4 1 22 22 24 29 21 32 9 35 55 29 11 0 -2 27 38 33 25 18 29 23 24 15 9
14 6 11 8 7 23 6 0 1 5 0 1 9 29 24 25 16 14 17 27 11 8 22 27 29 30 20 24 10 -6 24 25 22 7 -3 -22 21 39 8 9 21 25 20 16
13 13 6 17 -7 30 13 3 -0 1 -1 18 11 11 19 15 6 12 14 29 23 19 18 7 7 21 25 17 26 11 -6 32 26 25 16 11 -13 -28 8 -18 -11 -2 19 26
35 22 11 5 8 -5 0 4 2 4 5 12 19 13 19 17 15 16 21 14 12 13 26 21 3 5 30 33 18 23 -7 -4 -16 8 19 43 26 7 -5 30 -4 28 40 -9
24 13 12 4 7 13 7 7 6 16 18 15 23 19 15 10 12 23 8 -0 4 -2 16 -7 15 25 22 33 31 23 28 9 15 -3 -10 -15 15 35 44 1 11 -3 23 14
8 7 10 11 17 21 22 18 19 20 14 19 20 18 25 6 18 10 -7 4 -3 14 23 6 8 -19 -2 16 37 27 31 25 3 -5 -24 -0 12 8 15 34 2 1 -0 0
17 16 11 6 1 12 12 23 31 36 26 24 17 17 14 16 18 9 10 9 13 6 -1 13 12 12 9 5 -4 26 21 15 21 38 33 27 0 -37 10 30 38 29 20 14
29 27 23 23 25 14 34 28 9 14 3 8 5 13 18 19 20 8 15 12 13 25 -0 4 17 3 18 12 18 6 31 18 16 11 27 8 5 -5 -19 17 6 32 30 29
20 29 28 19 26 24 13 8 -7 -0 2 2 -1 15 8 14 20 16 11 15 12 13 11 19 22 18 -5 21 8 10 13 24 18 20 18 3 19 22 16 -6 -3 15 8 34
13 14 20 16 15 17 20 16 17 9 8 15 15 5 13 11 28 18 3 12 14 4 10 21 29 11 3 1 15 23 6 14 2 14 29 23 22 15 2 7 13 4 2 6
16 17 14 13 11 10 12 14 13 16 16 15 19 19 11 12 20 16 7 6 10 -3 1 13 17 15 25 27 18 20 20 14 11 17 13 18 23 18 21 21 20 -3 -20 -31
11 13 19 19 16 17 16 15 15 15 14 12 18 17 15 6 9 9 9 11 10 3 6 9 18 20 14 10 13 14 15 16 16 16 17 18 14 21 11 11 10 14 20 16
14 12 11 11 10 8 13 18 20 19 18 15 13 12 17 21 6 4 5 7 7 14 13 8 10 6 11 11 10 9 12 11 13 13 13 15 22 19 8 22 22 17 10 6
16 15 14 12 10 10 11 9 7 9 12 19 19 16 17 20 19 22 19 18 12 7 7 13 11 10 10 8 8 8 9 10 10 10 9 9 11 14 21 18 11 15 19 16
15 15 14 14 11 7 6 8 7 11 10 14 13 14 14 16 18 16 18 22 16 11 17 10 12 14 12 13 12 11 10 10 11 14 17 19 19 17 14 12 14 16 15 15
9 8 7 7 8 7 9 8 9 10 11 11 12 18 14 11 10 11 15 15 18 21 20 15 14 11 8 7 7 7 7 7 6 6 7 7 7 8 9 13 16 20 21 20
Height
5640 5636 5632 5628 5624 5622 5619 5616 5614 5613 5611 5611 5609 5610 5608 5608 5607 5603 5602 5602 5603 5603 5604 5604 5607 5610 5612 5613 5613 5613 5614 5612 5614 5621 5621 5624 5626 5626 5625 5623 5622 5619 5619 5621
5623 5619 5615 5611 5607 5604 5601 5597 5596 5593 5590 5590 5592 5591 5591 5590 5592 5589 5587 5587 5589 5588 5589 5589 5592 5595 5599 5597 5598 5597 5599 5597 5601 5603 5610 5617 5615 5618 5616 5615 5612 5614 5614 5617
5603 5598 5594 5590 5587 5583 5580 5575 5572 5572 5569 5568 5567 5567 5571 5571 5573 5572 5570 5570 5571 5571 5573 5573 5576 5582 5584 5584 5584 5582 5581 5584 5588 5591 5595 5602 5603 5605 5604 5603 5600 5609 5606 5609
5582 5575 5571 5565 5561 5557 5554 5549 5546 5546 5544 5544 5544 5542 5545 5546 5547 5550 5551 5550 5552 5552 5555 5556 5559 5562 5566 5569 5569 5569 5566 5569 5574 5577 5580 5583 5588 5592 5593 5588 5592 5591 5603 5602
5556 5550 5541 5535 5531 5527 5524 5520 5520 5518 5519 5518 5515 5515 5520 5518 5521 5525 5530 5526 5531 5532 5535 5537 5540 5544 5547 5551 5552 5552 5551 5557 5556 5560 5566 5567 5568 5575 5575 5579 5584 5585 5590 5594
5528 5520 5513 5506 5498 5494 5490 5487 5486 5485 5490 5489 5486 5488 5488 5492 5494 5500 5503 5504 5507 5510 5513 5516 5520 5522 5529 5533 5534 5536 5535 5539 5539 5543 5550 5549 5546 5558 5566 5571 5575 5578 5575 5587
5498 5491 5485 5479 5473 5464 5460 5458 5457 5457 5460 5459 5456 5458 5460 5466 5467 5469 5478 5479 5479 5487 5488 5493 5497 5501 5506 5511 5518 5519 5520 5523 5522 5525 5530 5523 5542 5544 5549 5552 5560 5564 5565 5571
5473 5464 5458 5453 5448 5442 5437 5433 5432 5431 5435 5434 5434 5434 5435 5438 5442 5445 5451 5456 5454 5457 5464 5467 5472 5480 5482 5493 5497 5501 5503 5505 5506 5507 5511 5514 5524 5528 5535 5536 5543 5548 5550 5556
5450 5443 5438 5434 5430 5427 5423 5422 5419 5419 5419 5421 5417 5418 5416 5418 5420 5423 5427 5428 5431 5435 5442 5444 5446 5455 5464 5470 5476 5484 5485 5488 5489 5495 5493 5497 5510 5513 5517 5518 5516 5534 5537 5541
5435 5430 5425 5422 5419 5417 5415 5414 5414 5413 5413 5412 5408 5406 5406 5405 5404 5405 5406 5411 5413 5410 5417 5422 5427 5434 5443 5447 5455 5465 5468 5471 5472 5479 5481 5484 5486 5494 5497 5501 5513 5517 5523 5527
5426 5422 5417 5413 5411 5410 5409 5409 5410 5409 5408 5405 5402 5399 5397 5397 5395 5396 5397 5399 5399 5399 5404 5405 5409 5414 5422 5428 5435 5442 5450 5455 5460 5464 5468 5470 5472 5479 5482 5487 5494 5500 5507 5510
5420 5416 5412 5408 5406 5405 5405 5406 5405 5403 5401 5400 5396 5393 5390 5389 5389 5388 5388 5390 5390 5390 5392 5395 5397 5401 5409 5414 5423 5424 5435 5438 5445 5452 5455 5456 5459 5465 5468 5472 5478 5483 5491 5497
5414 5411 5408 5405 5403 5402 5401 5400 5399 5397 5395 5395 5391 5386 5382 5382 5381 5380 5381 5381 5381 5383 5383 5384 5388 5391 5395 5400 5408 5415 5417 5424 5431 5438 5442 5445 5447 5450 5456 5459 5464 5469 5475 5482
5407 5405 5403 5402 5401 5399 5397 5395 5393 5391 5388 5387 5384 5379 5378 5377 5376 5374 5374 5375 5376 5377 5378 5379 5381 5383 5385 5390 5395 5400 5407 5412 5417 5423 5429 5433 5437 5439 5444 5450 5455 5460 5464 5470
5398 5397 5397 5397 5396 5393 5391 5389 5386 5384 5383 5379 5378 5374 5372 5371 5371 5370 5370 5371 5372 5373 5374 5375 5376 5377 5378 5381 5385 5391 5395 5401 5409 5414 5419 5423 5427 5431 5435 5439 5444 5447 5454 5460
5395 5392 5391 5391 5389 5387 5384 5382 5381 5376 5373 5372 5371 5368 5367 5367 5368 5368 5368 5369 5370 5371 5372 5371 5373 5373 5375 5375 5378 5383 5389 5394 5399 5404 5408 5414 5417 5420 5425 5429 5432 5438 5442 5448
5392 5389 5386 5384 5382 5380 5377 5375 5372 5369 5367 5366 5365 5364 5363 5363 5364 5366 5366 5367 5368 5368 5368 5370 5370 5371 5373 5372 5373 5376 5380 5386 5389 5393 5400 5405 5406 5412 5416 5418 5422 5428 5432 5437
5386 5383 5380 5378 5376 5373 5370 5367 5364 5362 5362 5362 5361 5361 5360 5360 5361 5362 5363 5364 5365 5365 5366 5367 5367 5368 5368 5370 5372 5373 5375 5379 5383 5386 5391 5395 5401 5406 5410 5412 5414 5418 5422 5426
5380 5376 5373 5371 5369 5367 5364 5363 5362 5362 5362 5361 5360 5360 5359 5358 5358 5359 5360 5361 5362 5363 5363 5364 5365 5365 5366 5366 5367 5370 5371 5373 5375 5379 5383 5389 5394 5399 5403 5406 5408 5411 5413 5416
5379 5374 5370 5368 5366 5364 5363 5362 5362 5361 5360 5360 5359 5359 5358 5357 5356 5356 5358 5359 5360 5360 5361 5360 5359 5360 5362 5363 5364 5366 5367 5369 5370 5372 5377 5381 5385 5390 5395 5400 5403 5405 5407 5410
5380 5375 5371 5368 5366 5364 5363 5362 5362 5361 5360 5359 5358 5358 5356 5356 5355 5355 5355 5357 5358 5358 5359 5357 5356 5358 5359 5359 5360 5361 5363 5364 5366 5367 5369 5372 5376 5381 5386 5391 5395 5398 5401 5405
5381 5377 5373 5370 5368 5366 5364 5362 5361 5360 5359 5357 5356 5356 5356 5355 5354 5354 5355 5355 5356 5356 5356 5356 5354 5355 5354 5355 5356 5356 5357 5359 5361 5362 5364 5366 5369 5373 5377 5382 5387 5390 5393 5398
5382 5379 5375 5372 5370 5367 5365 5363 5361 5359 5358 5357 5355 5354 5354 5354 5354 5354 5354 5354 5354 5354 5354 5354 5353 5352 5352 5352 5353 5353 5354 5355 5356 5358 5359 5361 5364 5366 5369 5373 5376 5380 5384 5388
5383 5380 5376 5374 5370 5368 5366 5364 5362 5360 5358 5356 5354 5354 5353 5352 5352 5352 5352 5353 5353 5353 5353 5352 5352 5352 5352 5351 5351 5352 5352 5353 5354 5355 5356 5357 5359 5361 5363 5365 5368 5371 5375 5379
5385 5382 5379 5376 5374 5372 5369 5366 5363 5361 5358 5356 5354 5353 5352 5350 5350 5350 5350 5350 5350 5351 5350 5350 5350 5350 5350 5350 5350 5350 5350 5351 5351 5352 5353 5354 5355 5356 5358 5359 5361 5363 5366 5369
5389 5386 5382 5380 5376 5372 5369 5367 5364 5362 5359 5357 5356 5353 5351 5350 5349 5348 5347 5347 5347 5348 5348 5348 5347 5347 5347 5347 5347 5347 5347 5348 5348 5348 5349 5349 5350 5351 5353 5354 5356 5357 5359 5362
5393 5388 5385 5382 5378 5376 5372 5368 5365 5363 5360 5358 5356 5354 5352 5351 5349 5348 5347 5346 5346 5346 5345 5345 5345 5345 5344 5344 5344 5344 5344 5344 5344 5344 5344 5345 5345 5346 5347 5348 5349 5351 5353 5355